Location: Mascot Post Office (historical)
(40.2645°N, 99.5462°W)
Time: 01:55:42
(UTC+00:00)

Meteor 2-20 Rocket - Pass Details

Date: 14 July 2020
Orbit: 941 x 958 km, 82.5° (Epoch: 14 August)

Event Time Altitude Azimuth Distance (km) Brightness Sun altitude
Rises 07:17:58 0° 348° (NNW) 3,640 8.6 -27.6°
Reaches altitude 10° 07:20:29 10° 346° (NNW) 2,692 7.6 -27.6°
Maximum altitude 07:26:33 63° 267° (W) 1,063 4.5 -27.4°
Enters shadow 07:26:54 62° 249° (WSW) 1,073 4.5 -27.3°
